Location: Centerville
(32.8776°N, 96.6203°W)
Time: 15:29:47
(UTC+00:00)

H-2A R/B - Pass Details

Date: 17 June 2021
Orbit: 574 x 597 km, 98.2° (Epoch: 26 July)

Event Time Altitude Azimuth Distance (km) Brightness Sun altitude
Rises 04:29:32 0° 8° (N) 2,786 7.7 -27.1°
Reaches altitude 10° 04:31:42 10° 6° (N) 1,884 6.7 -27.3°
Enters shadow 04:34:42 46° 344° (NNW) 781 4.4 -27.6°
